Weather History for Las Americas, Dominican Republic

Change the Weather History Date:

Friday, October 12, 2012

  Actual Average Record
Temperature  
Mean Temperature 82 °F -  
Max Temperature 90 °F 88 °F 91 °F (2008)
Min Temperature 73 °F 71 °F 71 °F (1997)
Cooling Degree Days 16    
Growing Degree Days 32 (Base 50)    
Moisture  
Dew Point 74 °F    
Average Humidity 82    
Maximum Humidity 94    
Minimum Humidity 59    
Precipitation  
Precipitation 0.00 in 0.17 in - ()
Sea Level Pressure  
Sea Level Pressure 29.88 in    
Wind  
Wind Speed 4 mph ()    
Max Wind Speed 7 mph    
Max Gust Speed -    
Visibility 6.6 miles    
Events      
Averages and records for this station are not official NWS values.
T = Trace of Precipitation, MM = Missing Value Source: Averaged Metar Reports

Daily Weather History Graph

Daily Weather History Graph

Search for Another Location

Airport:

Trip Planner

Search our weather history database for the weather conditions in past years. The results will help you decide how hot, cold, wet, or windy it might be!

Date:

Astronomy

Oct. 12, 2012 Rise Set
Actual Time 6:31 AM AST 6:18 PM AST
Civil Twilight 6:09 AM AST 6:39 PM AST
Nautical Twilight 5:44 AM AST 7:05 PM AST
Astronomical Twilight 5:19 AM AST 7:30 PM AST
Moon 3:35 AM AST (10/12) 4:07 PM AST (10/12)
Length of Visible Light 12h 30m
Length of Day
11h 46m
Waning Crescent, 11% of the Moon is Illuminated
Oct 12
Waning Crescent
Oct 15
New
Oct 21
First Quarter
Oct 29
Full
Nov 6
Last Quarter

Hourly Weather History & Observations

Time (AST) Temp. Heat Index Dew Point Humidity Pressure Visibility Wind Dir Wind Speed Gust Speed Precip Events Conditions
12:00 AM 73.4 °F - 71.6 °F 94% 29.92 in 6.2 mi Variable 3.5 mph - N/A   Scattered Clouds
1:00 AM 73.4 °F - 71.6 °F 94% 29.92 in 6.2 mi NE 4.6 mph - N/A   Scattered Clouds
2:00 AM 73.4 °F - 71.6 °F 94% 29.92 in 6.2 mi Calm Calm - N/A   Scattered Clouds
3:00 AM 73.4 °F - 71.6 °F 94% 29.89 in 6.2 mi Calm Calm - N/A   Scattered Clouds
4:00 AM 73.4 °F - 71.6 °F 94% 29.86 in 6.2 mi Calm Calm - N/A   Scattered Clouds
5:00 AM 73.4 °F - 71.6 °F 94% 29.86 in 6.2 mi NNE 4.6 mph - N/A   Scattered Clouds
7:00 AM 73.4 °F - 71.6 °F 94% 29.89 in 6.2 mi NNE 5.8 mph - N/A   Scattered Clouds
8:00 AM 75.2 °F - 71.6 °F 89% 29.89 in 6.2 mi NNE 5.8 mph - N/A   Scattered Clouds
9:00 AM 80.6 °F 86.2 °F 75.2 °F 84% 29.92 in 6.2 mi NE 5.8 mph - N/A   Scattered Clouds
10:00 AM 82.4 °F 90.9 °F 77.0 °F 84% 29.92 in 6.2 mi East 6.9 mph - N/A   Partly Cloudy
11:00 AM 85 °F - 76 °F 68% 29.94 in 10 mi ESE 6.7 mph - -   Partly Cloudy
11:00 AM 84.2 °F 94.1 °F 77.0 °F 79% 29.92 in 6.2 mi ESE 5.8 mph - N/A   Scattered Clouds
12:00 PM 87.8 °F 99.7 °F 77.0 °F 70% 29.89 in 6.2 mi SSE 6.9 mph - N/A   Scattered Clouds
1:00 PM 89.6 °F 99.8 °F 75.2 °F 62% 29.89 in 6.2 mi South 5.8 mph - N/A   Scattered Clouds
2:00 PM 89.6 °F 98.2 °F 73.4 °F 59% 29.86 in 6.2 mi SSE 5.8 mph - N/A   Partly Cloudy
3:00 PM 89.6 °F 99.8 °F 75.2 °F 62% 29.83 in 6.2 mi South 6.9 mph - N/A   Partly Cloudy
4:00 PM 87.8 °F 97.6 °F 75.2 °F 66% 29.83 in 5.0 mi SE 6.9 mph - N/A   Mostly Cloudy
5:00 PM 83 °F - 73 °F 64% 29.84 in 10 mi NE 6.7 mph - -   Mostly Cloudy
5:00 PM 84.2 °F 90.9 °F 73.4 °F 70% 29.83 in 6.2 mi NE 6.9 mph - N/A   Mostly Cloudy
6:00 PM 84.2 °F 90.9 °F 73.4 °F 70% 29.83 in 6.2 mi NE 5.8 mph - N/A   Scattered Clouds
7:00 PM 78.8 °F - 75.2 °F 89% 29.83 in 6.2 mi NE 5.8 mph - N/A   Scattered Clouds
8:00 PM 79 °F - 78 °F 94% 29.88 in 10 mi NE 6.7 mph - -   Partly Cloudy
8:00 PM 77.0 °F - 75.2 °F 94% 29.86 in 6.2 mi NE 5.8 mph - N/A   Scattered Clouds
9:00 PM 77.0 °F - 73.4 °F 89% 29.89 in 6.2 mi NE 6.9 mph - N/A   Partly Cloudy
10:00 PM 75.2 °F - 73.4 °F 94% 29.92 in 6.2 mi NE 6.9 mph - N/A   Partly Cloudy
11:00 PM 75.2 °F - 71.6 °F 89% 29.89 in 6.2 mi ENE 5.8 mph - N/A   Partly Cloudy